Weather History for Shannon, Ireland

Change the Weather History Date:

Monday, February 10, 2014

  Actual Average Record
Temperature  
Mean Temperature 40 °F -  
Max Temperature 46 °F 48 °F 55 °F (1998)
Min Temperature 33 °F 37 °F 32 °F (2006)
Degree Days  
Heating Degree Days 26    
Moisture  
Dew Point 34 °F    
Average Humidity 77    
Maximum Humidity 100    
Minimum Humidity 38    
Precipitation  
Precipitation 0.04 in 0.09 in - ()
Sea Level Pressure  
Sea Level Pressure 29.28 in    
Wind  
Wind Speed 10 mph ()    
Max Wind Speed 27 mph    
Max Gust Speed 36 mph    
Visibility 7.8 miles    
Events Rain    
Averages and records for this station are not official NWS values.
T = Trace of Precipitation, MM = Missing Value Source: Averaged Metar Reports

Daily Weather History Graph

Daily Weather History Graph

Search for Another Location

Airport:

Trip Planner

Search our weather history database for the weather conditions in past years. The results will help you decide how hot, cold, wet, or windy it might be!

Date:

Astronomy

Feb. 10, 2014 Rise Set
Actual Time 8:02 AM GMT 5:38 PM GMT
Civil Twilight 7:26 AM GMT 6:14 PM GMT
Nautical Twilight 6:45 AM GMT 6:54 PM GMT
Astronomical Twilight 6:06 AM GMT 7:34 PM GMT
Moon 1:42 PM GMT (2/10) 4:59 AM GMT (2/10)
Length of Visible Light 10h 48m
Length of Day
9h 35m
Waxing Gibbous, 83% of the Moon is Illuminated
Feb 10
Waxing Gibbous
Feb 14
Full
Feb 22
Last Quarter
Mar 1
New
Mar 8
First Quarter

Hourly Weather History & Observations

Time (GMT) Temp. Windchill Dew Point Humidity Pressure Visibility Wind Dir Wind Speed Gust Speed Precip Events Conditions
12:00 AM 36 °F - 34 °F 91% 29.03 in 12 mi NNW 8.9 mph - - Rain Light Rain
12:00 AM 35.6 °F 28.6 °F 33.8 °F 93% 29.03 in 6.2 mi NNW 9.2 mph - N/A   Mostly Cloudy
12:30 AM 33.8 °F 27.7 °F 33.8 °F 100% 29.03 in 6.2 mi NW 6.9 mph - N/A   Scattered Clouds
1:00 AM 35 °F - 33 °F 92% 29.07 in 12 mi WNW 8.9 mph - -   Scattered Clouds
1:00 AM 35.6 °F 29.2 °F 33.8 °F 93% 29.06 in 6.2 mi WNW 8.1 mph - N/A   Scattered Clouds
1:30 AM 33.8 °F 27.7 °F 33.8 °F 100% 29.06 in 6.2 mi NW 6.9 mph - N/A   Scattered Clouds
2:00 AM 34 °F - 33 °F 94% 29.10 in 12 mi NW 6.7 mph - -   Clear
2:00 AM 33.8 °F 27.7 °F 33.8 °F 100% 29.09 in 6.2 mi NW 6.9 mph - N/A   Mostly Cloudy
2:30 AM 33.8 °F 28.6 °F 32.0 °F 93% 29.09 in 6.2 mi WNW 5.8 mph - N/A   Mostly Cloudy
3:00 AM 35 °F - 33 °F 90% 29.12 in 12 mi North 2.2 mph - -   Clear
3:00 AM 33.8 °F - 33.8 °F 100% 29.12 in 6.2 mi North 2.3 mph - N/A   Mostly Cloudy
3:30 AM 33.8 °F - 32.0 °F 93% 29.12 in 6.2 mi WSW 2.3 mph - N/A   Mostly Cloudy
4:00 AM 34 °F - 33 °F 94% 29.14 in 12 mi SSW 2.2 mph - -   Clear
4:00 AM 33.8 °F - 33.8 °F 100% 29.12 in 6.2 mi SSW 1.2 mph - N/A   Mostly Cloudy
4:30 AM 35.6 °F - 33.8 °F 93% 29.15 in 6.2 mi WSW 2.3 mph - N/A   Mostly Cloudy
5:00 AM 36 °F - 35 °F 92% 29.17 in 12 mi WSW 4.5 mph - -   Mostly Cloudy
5:00 AM 35.6 °F 32.8 °F 33.8 °F 93% 29.15 in 6.2 mi WSW 3.5 mph - N/A   Mostly Cloudy
5:30 AM 37.4 °F 33.8 °F 35.6 °F 93% 29.18 in 6.2 mi West 4.6 mph - N/A   Mostly Cloudy
6:00 AM 37 °F - 36 °F 93% 29.20 in 12 mi West 6.7 mph - -   Partly Cloudy
6:00 AM 37.4 °F 32.1 °F 35.6 °F 93% 29.18 in 6.2 mi West 6.9 mph - N/A   Mostly Cloudy
6:30 AM 37.4 °F 30.3 °F 35.6 °F 93% 29.21 in 6.2 mi West 10.4 mph - N/A   Mostly Cloudy
7:00 AM 39 °F - 36 °F 86% 29.23 in 12 mi West 8.9 mph - -   Mostly Cloudy
7:00 AM 39.2 °F 33.0 °F 35.6 °F 87% 29.21 in 6.2 mi West 9.2 mph - N/A   Mostly Cloudy
7:30 AM 39.2 °F 31.2 °F 35.6 °F 87% 29.24 in 6.2 mi West 13.8 mph - N/A   Mostly Cloudy
8:00 AM 40 °F - 37 °F 86% 29.28 in 6 mi West 13.4 mph - - Rain Light Rain Showers
8:00 AM 41.0 °F 33.9 °F 37.4 °F 87% 29.27 in 5.6 mi West 12.7 mph - N/A Rain Light Rain Showers
8:30 AM 41.0 °F 33.1 °F 39.2 °F 93% 29.30 in 6.2 mi WNW 15.0 mph - N/A   Mostly Cloudy
9:00 AM 41 °F - 37 °F 81% 29.33 in 7 mi WNW 15.7 mph - - Rain Light Rain Showers
9:00 AM 41.0 °F 31.4 °F 37.4 °F 87% 29.33 in 6.2 mi WNW 21.9 mph - N/A Rain Light Rain Showers
9:30 AM 41.0 °F 31.9 °F 37.4 °F 87% 29.33 in 6.2 mi WNW 19.6 mph - N/A   Mostly Cloudy
10:00 AM 41 °F - 38 °F 83% 29.37 in 12 mi WNW 15.7 mph - - Rain Light Rain Showers
10:00 AM 41.0 °F 32.8 °F 37.4 °F 87% 29.36 in 6.2 mi WNW 16.1 mph - N/A   Mostly Cloudy
10:30 AM 42.8 °F 34.8 °F 37.4 °F 81% 29.36 in 6.2 mi NW 17.3 mph - N/A   Mostly Cloudy
11:00 AM 42 °F - 36 °F 72% 29.39 in 12 mi WNW 22.4 mph - - Rain Light Rain Showers
11:00 AM 41.0 °F 31.4 °F 35.6 °F 81% 29.39 in 6.2 mi WNW 21.9 mph 35.7 mph N/A   Mostly Cloudy
11:30 AM 42.8 °F 36.6 °F 35.6 °F 76% 29.39 in 6.2 mi NW 11.5 mph - N/A   Mostly Cloudy
12:00 PM 45 °F - 35 °F 57% 29.42 in 16 mi WNW 13.4 mph - -   Mostly Cloudy
12:00 PM 44.6 °F 38.4 °F 35.6 °F 71% 29.42 in 6.2 mi WNW 12.7 mph - N/A   Mostly Cloudy
12:30 PM 44.6 °F 37.8 °F 33.8 °F 66% 29.42 in 6.2 mi WNW 15.0 mph - N/A   Scattered Clouds
1:00 PM 47 °F - 34 °F 49% 29.43 in 19 mi West 17.9 mph - - Rain Light Rain Showers
1:00 PM 46.4 °F 39.2 °F 33.8 °F 62% 29.42 in 6.2 mi West 18.4 mph - N/A   Scattered Clouds
1:30 PM 46.4 °F 39.5 °F 33.8 °F 62% 29.42 in 6.2 mi West 17.3 mph - N/A   Partly Cloudy
2:00 PM 46 °F - 29 °F 38% 29.44 in 25 mi West 15.7 mph - -   Scattered Clouds
2:00 PM 46.4 °F 39.8 °F 28.4 °F 50% 29.44 in 6.2 mi West 16.1 mph - N/A   Partly Cloudy
2:30 PM 46.4 °F 39.8 °F 30.2 °F 53% 29.44 in 6.2 mi West 16.1 mph - N/A   Scattered Clouds
3:00 PM 44 °F - 32 °F 50% 29.46 in 25 mi WSW 15.7 mph - -   Partly Cloudy
3:00 PM 44.6 °F 37.4 °F 32.0 °F 61% 29.44 in 6.2 mi WSW 16.1 mph - N/A   Partly Cloudy
3:30 PM 42.8 °F 36.2 °F 30.2 °F 61% 29.44 in 6.2 mi WSW 12.7 mph - N/A   Partly Cloudy
4:00 PM 44 °F - 31 °F 48% 29.45 in 25 mi WSW 8.9 mph - -   Scattered Clouds
4:00 PM 44.6 °F 40.2 °F 30.2 °F 57% 29.44 in 6.2 mi WSW 8.1 mph - N/A   Scattered Clouds
4:30 PM 42.8 °F 38.0 °F 30.2 °F 61% 29.42 in 6.2 mi SSW 8.1 mph - N/A   Mostly Cloudy
5:00 PM 42 °F - 30 °F 52% 29.43 in 25 mi South 8.9 mph - -   Scattered Clouds
5:00 PM 42.8 °F 38.0 °F 30.2 °F 61% 29.42 in 6.2 mi South 8.1 mph - N/A   Mostly Cloudy
5:30 PM 41.0 °F 35.2 °F 30.2 °F 65% 29.42 in 6.2 mi SSE 9.2 mph - N/A   Mostly Cloudy
6:00 PM 41 °F - 31 °F 56% 29.43 in 12 mi SSE 13.4 mph - -   Partly Cloudy
6:00 PM 41.0 °F 33.9 °F 30.2 °F 65% 29.42 in 6.2 mi SSE 12.7 mph - N/A   Mostly Cloudy
6:30 PM 41.0 °F 33.9 °F 30.2 °F 65% 29.39 in 6.2 mi SSE 12.7 mph - N/A   Mostly Cloudy
7:00 PM 41 °F - 31 °F 57% 29.37 in 12 mi SE 15.7 mph - -   Overcast
7:00 PM 41.0 °F 33.1 °F 30.2 °F 65% 29.36 in 6.2 mi SE 15.0 mph - N/A   Overcast
7:30 PM 41.0 °F 33.1 °F 30.2 °F 65% 29.33 in 6.2 mi SE 15.0 mph - N/A   Overcast
8:00 PM 40 °F - 32 °F 63% 29.31 in 12 mi SE 15.7 mph - -   Overcast
8:00 PM 41.0 °F 33.1 °F 32.0 °F 70% 29.30 in 6.2 mi SE 15.0 mph - N/A   Overcast
8:30 PM 42.8 °F 34.5 °F 32.0 °F 66% 29.27 in 6.2 mi SE 18.4 mph - N/A   Overcast
9:00 PM 43 °F - 33 °F 59% 29.25 in 12 mi SE 20.1 mph - -   Overcast
9:00 PM 42.8 °F 34.0 °F 33.8 °F 70% 29.24 in 6.2 mi SE 20.7 mph 32.2 mph N/A   Overcast
9:30 PM 42.8 °F 33.3 °F 35.6 °F 76% 29.21 in 6.2 mi SSE 24.2 mph - N/A Rain Light Rain
10:00 PM 42 °F - 37 °F 75% 29.19 in 12 mi SSE 26.8 mph - - Rain Light Rain
10:00 PM 42.8 °F 32.9 °F 37.4 °F 81% 29.18 in 6.2 mi SSE 26.5 mph - N/A   Mostly Cloudy
10:30 PM 42.8 °F 32.9 °F 37.4 °F 81% 29.15 in 6.2 mi SSE 26.5 mph - N/A   Mostly Cloudy
11:00 PM 42 °F - 37 °F 78% 29.16 in 7 mi South 26.8 mph - - Rain Light Rain
11:00 PM 42.8 °F 32.9 °F 37.4 °F 81% 29.15 in 6.2 mi South 26.5 mph - N/A Rain Light Rain
11:30 PM 41.0 °F 31.1 °F 37.4 °F 87% 29.15 in 6.2 mi South 23.0 mph - N/A Rain Light Rain